Overview Statistics Trail Chart Weather Telemetry Raw packets
 

This is the latest recevied weather packets stored in our database for station/object EA3DJ-10. If no packets are shown the sender has not sent any weather packets the latest 10 day(s).

<< 19 20 21 22 23 24 25 >>
Time Temp. Humidity Pressure Rain* Wind** Luminosity Snow
1788031158 27.22° C 43% 1017.9 hPa - - - -
1788029956 27.22° C 43% 1017.7 hPa - - - -
1788028756 26.67° C 43% 1017.6 hPa - - - -
1788027555 26.67° C 43% 1017.6 hPa - - - -
1788026355 26.67° C 43% 1017.6 hPa - - - -
1788025155 26.11° C 43% 1017.6 hPa - - - -
1788023955 25.56° C 44% 1017.6 hPa - - - -
1788022755 25.56° C 49% 1017.7 hPa - - - -
1788021555 23.33° C 39% 1017.8 hPa - - - -
1788020355 23.89° C 39% 1017.8 hPa - - - -
1788019155 25° C 41% 1017.9 hPa - - - -
1788017955 27.78° C 40% 1017.9 hPa - - - -
1788016754 27.78° C 39% 1018.1 hPa - - - -
1788015554 27.22° C 39% 1018.4 hPa - - - -
1788014354 27.22° C 38% 1018.4 hPa - - - -
1788013154 25.56° C 41% 1018.6 hPa - - - -
1788011954 27.78° C 39% 1018.7 hPa - - - -
1788010754 27.78° C 39% 1018.8 hPa - - - -
1788009554 27.78° C 38% 1019 hPa - - - -
1788008354 27.78° C 38% 1019.1 hPa - - - -
1788007154 27.78° C 37% 1019.3 hPa - - - -
1788005953 27.78° C 37% 1019.5 hPa - - - -
1788004753 27.78° C 36% 1019.9 hPa - - - -
1788003553 27.78° C 36% 1020 hPa - - - -
1788002353 27.78° C 36% 1020.2 hPa - - - -

* Rain since midnight (hover to see other rain measurements)
** Current wind speed in m/s (hover to see current wind gust speed)